Flag for Bosnia-Herzegovina Weather past 2 weeks in Mostar, Bosnia-Herzegovina

Now
57 °F

Passing clouds.


Feels Like: 57 °F
Forecast: 54 / 72 °F
Wind: 2 mph from North

Location: Mostar

Current Time: May 26, 2015 at 12:55:50 AM

Latest Report: May 26, 2015 at 12:00 AM


Visibility: N/A

Pressure: 29.83 "Hg

Humidity: 88%

Dew point: 54 °F

Location of MostarLocation

Historic Weather in Mostar — Graph

°F

Mostar temperature yesterday

Maximum temperature yesterday: 66 °F (at 11:00 AM)
Minimum temperature yesterday: 57 °F (at 12:00 AM)
Average temperature yesterday: 60 °F

Past Weeks' High & Low Weather Summary

 TemperatureHumidityPressure
High90 °F (May 18, 3:00 PM)100% (May 22, 9:00 PM)30.21 "Hg (May 22, 9:00 PM)
Low48 °F (May 24, 5:00 AM)18% (May 11, 1:30 PM)29.68 "Hg (May 22, 3:00 PM)
Average69 °F58%29.91 "Hg
* Reported May 10 11:00 PM — May 25 11:00 PM, Mostar, Weather by CustomWeather, © 2015

Note: Actual official high and low records may vary slightly from our data, if they occured in-between our weather recording intervals... More about our weather records

Advertising

Mostar weather history for previous 24 hours

 ConditionsComfort  
Time TempWeatherWind HumidityBarometerVisibility
11:00 PM
Mon, May 25
57 °FPassing clouds.2 mph88%29.83 "HgN/A
10:00 PM57 °FPartly cloudy.2 mph94%29.83 "HgN/A
9:00 PM57 °FScattered clouds.6 mph94%29.83 "HgN/A
8:00 PM59 °FBroken clouds.2 mph77%29.83 "HgN/A
7:00 PM59 °FLight rain. More clouds than sun.3 mph77%29.83 "HgN/A
6:00 PM59 °FLight rain. Overcast.5 mph82%29.83 "HgN/A
5:00 PM61 °FLight rain. Overcast.6 mph77%29.86 "HgN/A
4:00 PM61 °FLight rain. Overcast.7 mph77%29.86 "HgN/A
3:30 PM61 °FLight rain. Overcast.8 mph83%29.86 "HgN/A
3:00 PM63 °FLight rain. Overcast.8 mph77%29.86 "HgN/A
2:30 PM63 °FLight rain. Partly sunny.9 mph77%29.86 "HgN/A
2:00 PM63 °FLight rain. Partly sunny.10 mph77%29.86 "HgN/A
1:30 PM64 °FPartly sunny.13 mph73%29.86 "HgN/A
1:00 PM64 °FPartly sunny.5 mph64%29.83 "HgN/A
12:30 PM64 °FBroken clouds.7 mph64%29.83 "HgN/A
12:00 PM66 °FBroken clouds.6 mph56%29.83 "HgN/A
11:30 AM66 °FBroken clouds.6 mph56%29.83 "HgN/A
11:00 AM66 °FBroken clouds.5 mph60%29.83 "HgN/A
10:00 AM63 °FBroken clouds.1 mph77%29.83 "HgN/A
9:00 AM61 °FBroken clouds.2 mph83%29.86 "HgN/A
8:00 AM59 °FBroken clouds.5 mph88%29.83 "HgN/A
7:00 AM59 °FMostly cloudy.2 mph82%29.83 "HgN/A
6:00 AM57 °FPartly cloudy.2 mph88%29.83 "HgN/A
5:00 AM57 °FPartly cloudy.2 mph94%29.83 "HgN/A
4:00 AM57 °FPartly cloudy.2 mph94%29.83 "HgN/A
3:00 AM57 °FPassing clouds.2 mph94%29.83 "HgN/A
2:00 AM57 °FPartly cloudy.2 mph94%29.83 "HgN/A
1:00 AM59 °FPassing clouds.5 mph88%29.86 "HgN/A
12:00 AM57 °FPassing clouds.2 mph94%29.86 "HgN/A
Weather by CustomWeather, © 2015

See weather overviewHow to use our weather pages